Time,TemperatureF,DewpointF,PressureIn,WindDirection,WindDirectionDegrees,WindSpeedMPH,WindSpeedGustMPH,Humidity,HourlyPrecipIn,Conditions,Clouds,dailyrainin,SoftwareType,DateUTC
2013-03-20 00:00:00,69.0,-99.9,-100.00,ENE,66,16.0,-999.0,107,0.00,,,-99.99,,2013-03-20 05:00:00,
2013-03-20 00:23:00,69.0,-99.9,-100.00,ENE,66,16.0,-999.0,107,0.00,,,-99.99,,2013-03-20 05:23:00,
2013-03-20 00:33:00,69.0,-99.9,-100.00,ENE,66,16.0,-999.0,107,0.00,,,-99.99,,2013-03-20 05:33:00,
2013-03-20 00:43:00,69.0,-99.9,-100.00,ENE,66,16.0,-999.0,107,0.00,,,-99.99,,2013-03-20 05:43:00,
2013-03-20 00:53:00,69.0,-99.9,-100.00,ENE,66,16.0,-999.0,107,0.00,,,-99.99,,2013-03-20 05:53:00,
2013-03-20 01:00:00,68.0,-99.9,-100.00,ENE,60,16.0,-999.0,107,0.00,,,-99.99,,2013-03-20 06:00:00,
2013-03-20 01:22:00,68.0,-99.9,-100.00,ENE,60,16.0,-999.0,107,0.00,,,-99.99,,2013-03-20 06:22:00,
2013-03-20 01:32:00,68.0,-99.9,-100.00,ENE,60,16.0,-999.0,107,0.00,,,-99.99,,2013-03-20 06:32:00,
2013-03-20 01:43:00,68.0,-99.9,-100.00,ENE,60,16.0,-999.0,107,0.00,,,-99.99,,2013-03-20 06:43:00,
2013-03-20 01:53:00,68.0,-99.9,-100.00,ENE,60,16.0,-999.0,107,0.00,,,-99.99,,2013-03-20 06:53:00,
2013-03-20 02:00:00,68.0,-99.9,-100.00,NE,55,17.0,-999.0,107,0.00,,,-99.99,,2013-03-20 07:00:00,
2013-03-20 02:22:00,68.0,-99.9,-100.00,NE,55,17.0,-999.0,107,0.00,,,-99.99,,2013-03-20 07:22:00,
2013-03-20 02:32:00,68.0,-99.9,-100.00,NE,55,17.0,-999.0,107,0.00,,,-99.99,,2013-03-20 07:32:00,
2013-03-20 02:42:00,68.0,-99.9,-100.00,NE,55,17.0,-999.0,107,0.00,,,-99.99,,2013-03-20 07:42:00,
2013-03-20 02:52:00,68.0,-99.9,-100.00,NE,55,17.0,-999.0,107,0.00,,,-99.99,,2013-03-20 07:52:00,
2013-03-20 03:00:00,68.0,-99.9,-100.00,NE,49,16.0,-999.0,107,0.00,,,-99.99,,2013-03-20 08:00:00,
2013-03-20 03:22:00,68.0,-99.9,-100.00,NE,49,16.0,-999.0,107,0.00,,,-99.99,,2013-03-20 08:22:00,
2013-03-20 03:32:00,68.0,-99.9,-100.00,NE,49,16.0,-999.0,107,0.00,,,-99.99,,2013-03-20 08:32:00,
2013-03-20 03:43:00,68.0,-99.9,-100.00,NE,49,16.0,-999.0,107,0.00,,,-99.99,,2013-03-20 08:43:00,
2013-03-20 03:52:00,68.0,-99.9,-100.00,NE,49,16.0,-999.0,107,0.00,,,-99.99,,2013-03-20 08:52:00,
2013-03-20 04:00:00,68.0,-99.9,-100.00,NE,46,16.0,-999.0,107,0.00,,,-99.99,,2013-03-20 09:00:00,
2013-03-20 04:23:00,68.0,-99.9,-100.00,NE,46,16.0,-999.0,107,0.00,,,-99.99,,2013-03-20 09:23:00,
2013-03-20 04:33:00,68.0,-99.9,-100.00,NE,46,16.0,-999.0,107,0.00,,,-99.99,,2013-03-20 09:33:00,
2013-03-20 04:43:00,68.0,-99.9,-100.00,NE,46,16.0,-999.0,107,0.00,,,-99.99,,2013-03-20 09:43:00,
2013-03-20 04:53:00,68.0,-99.9,-100.00,NE,46,16.0,-999.0,107,0.00,,,-99.99,,2013-03-20 09:53:00,
2013-03-20 05:00:00,68.0,-99.9,-100.00,NNE,27,23.0,-999.0,105,0.00,,,-99.99,,2013-03-20 10:00:00,
2013-03-20 05:23:00,68.0,-99.9,-100.00,NNE,27,23.0,-999.0,105,0.00,,,-99.99,,2013-03-20 10:23:00,
2013-03-20 05:33:00,68.0,-99.9,-100.00,NNE,27,23.0,-999.0,105,0.00,,,-99.99,,2013-03-20 10:33:00,
2013-03-20 05:43:00,68.0,-99.9,-100.00,NNE,27,23.0,-999.0,105,0.00,,,-99.99,,2013-03-20 10:43:00,
2013-03-20 05:53:00,68.0,-99.9,-100.00,NNE,27,23.0,-999.0,105,0.00,,,-99.99,,2013-03-20 10:53:00,
2013-03-20 06:00:00,68.0,68.0,-100.00,NNE,22,21.0,-999.0,100,0.00,,,-99.99,,2013-03-20 11:00:00,
2013-03-20 06:22:00,68.0,68.0,-100.00,NNE,22,21.0,-999.0,100,0.00,,,-99.99,,2013-03-20 11:22:00,
2013-03-20 06:32:00,68.0,68.0,-100.00,NNE,22,21.0,-999.0,100,0.00,,,-99.99,,2013-03-20 11:32:00,
2013-03-20 06:42:00,68.0,68.0,-100.00,NNE,22,21.0,-999.0,100,0.00,,,-99.99,,2013-03-20 11:42:00,
2013-03-20 06:52:00,68.0,68.0,-100.00,NNE,22,21.0,-999.0,100,0.00,,,-99.99,,2013-03-20 11:52:00,
2013-03-20 07:00:00,63.0,56.0,-100.00,NNE,22,28.0,-999.0,77,0.00,,,-99.99,,2013-03-20 12:00:00,
2013-03-20 07:22:00,63.0,56.0,-100.00,NNE,22,28.0,-999.0,77,0.00,,,-99.99,,2013-03-20 12:22:00,
2013-03-20 07:32:00,63.0,56.0,-100.00,NNE,22,28.0,-999.0,77,0.00,,,-99.99,,2013-03-20 12:32:00,
2013-03-20 07:42:00,63.0,56.0,-100.00,NNE,22,28.0,-999.0,77,0.00,,,-99.99,,2013-03-20 12:42:00,
2013-03-20 07:52:00,63.0,56.0,-100.00,NNE,22,28.0,-999.0,77,0.00,,,-99.99,,2013-03-20 12:52:00,
2013-03-20 08:00:00,64.0,52.0,-100.00,NE,40,25.0,-999.0,63,0.00,,,-99.99,,2013-03-20 13:00:00,
2013-03-20 08:22:00,64.0,52.0,-100.00,NE,40,25.0,-999.0,63,0.00,,,-99.99,,2013-03-20 13:22:00,
2013-03-20 08:32:00,64.0,52.0,-100.00,NE,40,25.0,-999.0,63,0.00,,,-99.99,,2013-03-20 13:32:00,
2013-03-20 08:42:00,64.0,52.0,-100.00,NE,40,25.0,-999.0,63,0.00,,,-99.99,,2013-03-20 13:42:00,
2013-03-20 08:53:00,64.0,52.0,-100.00,NE,40,25.0,-999.0,63,0.00,,,-99.99,,2013-03-20 13:53:00,
2013-03-20 09:00:00,65.0,52.0,-100.00,NE,43,23.0,-999.0,63,0.00,,,-99.99,,2013-03-20 14:00:00,
2013-03-20 09:23:00,65.0,52.0,-100.00,NE,43,23.0,-999.0,63,0.00,,,-99.99,,2013-03-20 14:23:00,
2013-03-20 09:33:00,65.0,52.0,-100.00,NE,43,23.0,-999.0,63,0.00,,,-99.99,,2013-03-20 14:33:00,
2013-03-20 09:42:00,65.0,52.0,-100.00,NE,43,23.0,-999.0,63,0.00,,,-99.99,,2013-03-20 14:42:00,
2013-03-20 09:52:00,65.0,52.0,-100.00,NE,43,23.0,-999.0,63,0.00,,,-99.99,,2013-03-20 14:52:00,
2013-03-20 10:00:00,68.0,53.0,-100.00,NE,46,23.0,-999.0,60,0.00,,,-99.99,,2013-03-20 15:00:00,
2013-03-20 10:22:00,68.0,53.0,-100.00,NE,46,23.0,-999.0,60,0.00,,,-99.99,,2013-03-20 15:22:00,
2013-03-20 10:33:00,68.0,53.0,-100.00,NE,46,23.0,-999.0,60,0.00,,,-99.99,,2013-03-20 15:33:00,
2013-03-20 10:43:00,68.0,53.0,-100.00,NE,46,23.0,-999.0,60,0.00,,,-99.99,,2013-03-20 15:43:00,
2013-03-20 10:53:00,68.0,53.0,-100.00,NE,46,23.0,-999.0,60,0.00,,,-99.99,,2013-03-20 15:53:00,
2013-03-20 11:00:00,69.0,54.0,-100.00,NNE,29,22.0,-999.0,59,0.00,,,-99.99,,2013-03-20 16:00:00,
2013-03-20 11:23:00,69.0,54.0,-100.00,NNE,29,22.0,-999.0,59,0.00,,,-99.99,,2013-03-20 16:23:00,
2013-03-20 11:33:00,69.0,54.0,-100.00,NNE,29,22.0,-999.0,59,0.00,,,-99.99,,2013-03-20 16:33:00,
2013-03-20 11:43:00,69.0,54.0,-100.00,NNE,29,22.0,-999.0,59,0.00,,,-99.99,,2013-03-20 16:43:00,
2013-03-20 11:53:00,69.0,54.0,-100.00,NNE,29,22.0,-999.0,59,0.00,,,-99.99,,2013-03-20 16:53:00,
2013-03-20 12:00:00,68.0,54.0,-100.00,NE,34,20.0,-999.0,60,0.00,,,-99.99,,2013-03-20 17:00:00,
2013-03-20 12:22:00,68.0,54.0,-100.00,NE,34,20.0,-999.0,60,0.00,,,-99.99,,2013-03-20 17:22:00,
2013-03-20 12:32:00,68.0,54.0,-100.00,NE,34,20.0,-999.0,60,0.00,,,-99.99,,2013-03-20 17:32:00,
2013-03-20 12:42:00,68.0,54.0,-100.00,NE,34,20.0,-999.0,60,0.00,,,-99.99,,2013-03-20 17:42:00,
2013-03-20 12:53:00,68.0,54.0,-100.00,NE,34,20.0,-999.0,60,0.00,,,-99.99,,2013-03-20 17:53:00,
2013-03-20 13:00:00,68.0,57.0,-100.00,NE,37,19.0,-999.0,68,0.00,,,-99.99,,2013-03-20 18:00:00,
2013-03-20 13:22:00,68.0,57.0,-100.00,NE,37,19.0,-999.0,68,0.00,,,-99.99,,2013-03-20 18:22:00,
2013-03-20 13:33:00,68.0,57.0,-100.00,NE,37,19.0,-999.0,68,0.00,,,-99.99,,2013-03-20 18:33:00,
2013-03-20 13:42:00,68.0,57.0,-100.00,NE,37,19.0,-999.0,68,0.00,,,-99.99,,2013-03-20 18:42:00,
2013-03-20 13:53:00,68.0,57.0,-100.00,NE,37,19.0,-999.0,68,0.00,,,-99.99,,2013-03-20 18:53:00,
2013-03-20 14:00:00,68.0,57.0,-100.00,NNE,26,16.0,-999.0,67,0.00,,,-99.99,,2013-03-20 19:00:00,
2013-03-20 14:22:00,68.0,57.0,-100.00,NNE,26,16.0,-999.0,67,0.00,,,-99.99,,2013-03-20 19:22:00,
2013-03-20 14:32:00,68.0,57.0,-100.00,NNE,26,16.0,-999.0,67,0.00,,,-99.99,,2013-03-20 19:32:00,
2013-03-20 14:42:00,68.0,57.0,-100.00,NNE,26,16.0,-999.0,67,0.00,,,-99.99,,2013-03-20 19:42:00,
2013-03-20 14:53:00,68.0,57.0,-100.00,NNE,26,16.0,-999.0,67,0.00,,,-99.99,,2013-03-20 19:53:00,
2013-03-20 15:00:00,69.0,56.0,-100.00,NE,38,16.0,-999.0,63,0.00,,,-99.99,,2013-03-20 20:00:00,
2013-03-20 15:22:00,69.0,56.0,-100.00,NE,38,16.0,-999.0,63,0.00,,,-99.99,,2013-03-20 20:22:00,
2013-03-20 15:32:00,69.0,56.0,-100.00,NE,38,16.0,-999.0,63,0.00,,,-99.99,,2013-03-20 20:32:00,
2013-03-20 15:42:00,69.0,56.0,-100.00,NE,38,16.0,-999.0,63,0.00,,,-99.99,,2013-03-20 20:42:00,
2013-03-20 15:53:00,69.0,56.0,-100.00,NE,38,16.0,-999.0,63,0.00,,,-99.99,,2013-03-20 20:53:00,
2013-03-20 16:00:00,70.0,56.0,-100.00,NE,35,16.0,-999.0,59,0.00,,,-99.99,,2013-03-20 21:00:00,
2013-03-20 16:22:00,70.0,56.0,-100.00,NE,35,16.0,-999.0,59,0.00,,,-99.99,,2013-03-20 21:22:00,
2013-03-20 16:33:00,70.0,56.0,-100.00,NE,35,16.0,-999.0,59,0.00,,,-99.99,,2013-03-20 21:33:00,
2013-03-20 16:42:00,70.0,56.0,-100.00,NE,35,16.0,-999.0,59,0.00,,,-99.99,,2013-03-20 21:42:00,
2013-03-20 16:53:00,70.0,56.0,-100.00,NE,35,16.0,-999.0,59,0.00,,,-99.99,,2013-03-20 21:53:00,
2013-03-20 17:00:00,72.0,54.0,-100.00,ENE,62,12.0,-999.0,54,0.00,,,-99.99,,2013-03-20 22:00:00,
2013-03-20 17:23:00,72.0,54.0,-100.00,ENE,62,12.0,-999.0,54,0.00,,,-99.99,,2013-03-20 22:23:00,
2013-03-20 17:33:00,72.0,54.0,-100.00,ENE,62,12.0,-999.0,54,0.00,,,-99.99,,2013-03-20 22:33:00,
2013-03-20 17:42:00,72.0,54.0,-100.00,ENE,62,12.0,-999.0,54,0.00,,,-99.99,,2013-03-20 22:42:00,
2013-03-20 17:52:00,72.0,54.0,-100.00,ENE,62,12.0,-999.0,54,0.00,,,-99.99,,2013-03-20 22:52:00,
2013-03-20 18:00:00,68.0,59.0,-100.00,East,90,21.0,-999.0,74,0.00,,,-99.99,,2013-03-20 23:00:00,
2013-03-20 18:22:00,68.0,59.0,-100.00,East,90,21.0,-999.0,74,0.00,,,-99.99,,2013-03-20 23:22:00,
2013-03-20 18:32:00,68.0,59.0,-100.00,East,90,21.0,-999.0,74,0.00,,,-99.99,,2013-03-20 23:32:00,
2013-03-20 18:42:00,68.0,59.0,-100.00,East,90,21.0,-999.0,74,0.00,,,-99.99,,2013-03-20 23:42:00,
2013-03-20 18:53:00,68.0,59.0,-100.00,East,90,21.0,-999.0,74,0.00,,,-99.99,,2013-03-20 23:53:00,
2013-03-20 19:00:00,68.0,53.0,-100.00,East,99,16.0,-999.0,58,0.00,,,-99.99,,2013-03-21 00:00:00,
2013-03-20 19:23:00,68.0,53.0,-100.00,East,99,16.0,-999.0,58,0.00,,,-99.99,,2013-03-21 00:23:00,
2013-03-20 19:33:00,68.0,53.0,-100.00,East,99,16.0,-999.0,58,0.00,,,-99.99,,2013-03-21 00:33:00,
2013-03-20 19:42:00,68.0,53.0,-100.00,East,99,16.0,-999.0,58,0.00,,,-99.99,,2013-03-21 00:42:00,
2013-03-20 19:52:00,68.0,53.0,-100.00,East,99,16.0,-999.0,58,0.00,,,-99.99,,2013-03-21 00:52:00,
2013-03-20 20:00:00,66.0,54.0,-100.00,East,89,14.0,-999.0,65,0.00,,,-99.99,,2013-03-21 01:00:00,
2013-03-20 20:22:00,66.0,54.0,-100.00,East,89,14.0,-999.0,65,0.00,,,-99.99,,2013-03-21 01:22:00,
2013-03-20 20:32:00,66.0,54.0,-100.00,East,89,14.0,-999.0,65,0.00,,,-99.99,,2013-03-21 01:32:00,
2013-03-20 20:42:00,66.0,54.0,-100.00,East,89,14.0,-999.0,65,0.00,,,-99.99,,2013-03-21 01:42:00,
2013-03-20 20:53:00,66.0,54.0,-100.00,East,89,14.0,-999.0,65,0.00,,,-99.99,,2013-03-21 01:53:00,
2013-03-20 21:00:00,67.0,54.0,-100.00,East,89,16.0,-999.0,62,0.00,,,-99.99,,2013-03-21 02:00:00,
2013-03-20 21:22:00,67.0,54.0,-100.00,East,89,16.0,-999.0,62,0.00,,,-99.99,,2013-03-21 02:22:00,
2013-03-20 21:32:00,67.0,54.0,-100.00,East,89,16.0,-999.0,62,0.00,,,-99.99,,2013-03-21 02:32:00,
2013-03-20 21:42:00,67.0,54.0,-100.00,East,89,16.0,-999.0,62,0.00,,,-99.99,,2013-03-21 02:42:00,
2013-03-20 21:52:00,67.0,54.0,-100.00,East,89,16.0,-999.0,62,0.00,,,-99.99,,2013-03-21 02:52:00,
2013-03-20 22:00:00,66.0,55.0,-100.00,East,101,17.0,-999.0,67,0.00,,,-99.99,,2013-03-21 03:00:00,
2013-03-20 22:22:00,66.0,55.0,-100.00,East,101,17.0,-999.0,67,0.00,,,-99.99,,2013-03-21 03:22:00,
2013-03-20 22:33:00,66.0,55.0,-100.00,East,101,17.0,-999.0,67,0.00,,,-99.99,,2013-03-21 03:33:00,
2013-03-20 22:43:00,66.0,55.0,-100.00,East,101,17.0,-999.0,67,0.00,,,-99.99,,2013-03-21 03:43:00,
2013-03-20 22:53:00,66.0,55.0,-100.00,East,101,17.0,-999.0,67,0.00,,,-99.99,,2013-03-21 03:53:00,
2013-03-20 23:00:00,65.0,52.0,-100.00,ESE,106,17.0,-999.0,62,0.00,,,-99.99,,2013-03-21 04:00:00,
2013-03-20 23:23:00,65.0,52.0,-100.00,ESE,106,17.0,-999.0,62,0.00,,,-99.99,,2013-03-21 04:23:00,
2013-03-20 23:33:00,65.0,52.0,-100.00,ESE,106,17.0,-999.0,62,0.00,,,-99.99,,2013-03-21 04:33:00,
2013-03-20 23:43:00,65.0,52.0,-100.00,ESE,106,17.0,-999.0,62,0.00,,,-99.99,,2013-03-21 04:43:00,
2013-03-20 23:53:00,65.0,52.0,-100.00,ESE,106,17.0,-999.0,62,0.00,,,-99.99,,2013-03-21 04:53:00,